This is the latest recevied weather packets stored in our database for station/object W4ZHA. If no packets are shown the sender has not sent any weather packets the latest 10 day(s).
| Time | Temp. | Humidity | Pressure | Rain* | Wind** | Luminosity | Snow |
|---|---|---|---|---|---|---|---|
| 1777996285 | 22.78° C | 57% | 1015.5 hPa | 0 mm | - | 366 W/m² | - |
| 1777995981 | 22.78° C | 55% | 1015.5 hPa | 0 mm | - | 329 W/m² | - |
| 1777995678 | 21.67° C | 56% | 1015.5 hPa | 0 mm | - | 348 W/m² | - |
| 1777995375 | 21.67° C | 57% | 1015.5 hPa | 0 mm | - | 302 W/m² | - |
| 1777995072 | 21.67° C | 58% | 1015.5 hPa | 0 mm | - | 305 W/m² | - |
| 1777994769 | 21.67° C | 57% | 1015.5 hPa | 0 mm | - | 171 W/m² | - |
| 1777994464 | 21.11° C | 57% | 1015.5 hPa | 0 mm | - | 262 W/m² | - |
| 1777994160 | 21.11° C | 58% | 1015.5 hPa | 0 mm | - | 301 W/m² | - |
| 1777993858 | 21.67° C | 58% | 1015.5 hPa | 0 mm | - | 340 W/m² | - |
| 1777993554 | 21.11° C | 59% | 1015.5 hPa | 0 mm | - | 267 W/m² | - |
| 1777993250 | 20.56° C | 60% | 1015.5 hPa | 0 mm | - | 164 W/m² | - |
| 1777992946 | 20.56° C | 61% | 1015.1 hPa | 0 mm | - | 174 W/m² | - |
| 1777992645 | 20.56° C | 61% | 1015.5 hPa | 0 mm | - | 222 W/m² | - |
| 1777992342 | 20.56° C | 61% | 1015.5 hPa | 0 mm | - | 103 W/m² | - |
| 1777992040 | 20° C | 61% | 1015.8 hPa | 0 mm | - | 99 W/m² | - |
| 1777991737 | 20° C | 61% | 1015.8 hPa | 0 mm | - | 269 W/m² | - |
| 1777991434 | 18.89° C | 60% | 1015.5 hPa | 0 mm | - | 160 W/m² | - |
| 1777991131 | 18.89° C | 60% | 1015.5 hPa | 0 mm | - | 82 W/m² | - |
| 1777990828 | 18.89° C | 61% | 1015.5 hPa | 0 mm | - | 90 W/m² | - |
| 1777990526 | 19.44° C | 62% | 1015.5 hPa | 0 mm | - | 88 W/m² | - |
| 1777989919 | 17.78° C | 62% | 1015.5 hPa | 0 mm | - | 93 W/m² | - |
| 1777989616 | 17.78° C | 63% | 1015.1 hPa | 0 mm | - | 99 W/m² | - |
| 1777989312 | 17.78° C | 63% | 1015.5 hPa | 0 mm | - | 99 W/m² | - |
| 1777989009 | 17.78° C | 63% | 1015.5 hPa | 0 mm | - | 99 W/m² | - |
| 1777988705 | 17.78° C | 64% | 1015.5 hPa | 0 mm | - | 101 W/m² | - |
* Rain latest hour (hover to see other rain measurements)
** Current wind speed in m/s (hover to see current wind gust speed)